Home   Weather   Myrtle Beach   Past weeks

Flag for USA Past Weather in Myrtle Beach, South Carolina, USA — Yesterday and Last 2 Weeks

59 °F


Feels Like: 57 °F
Forecast: 54 / 69 °F
Wind: 12 mph from North

Location: Myrtle Beach Air Force Base

Current Time: Oct 25, 2016 at 4:41:02 AM

Latest Report: Oct 25, 2016 at 4:15 AM

Visibility: 10 mi

Pressure: 30.20 "Hg

Humidity: 55%

Dew Point: 43 °F

Location of Myrtle BeachLocation

Past Weather in Myrtle Beach — Graph


Myrtle Beach Temperature Yesterday

Maximum temperature yesterday: 81 °F (at 2:45 PM)
Minimum temperature yesterday: 52 °F (at 3:15 AM)
Average temperature yesterday: 61 °F

High & Low Weather Summary for the Past Weeks

High84 °F (Oct 19, 12:45 PM)83% (Oct 17, 4:55 AM)30.39 "Hg (Oct 17, 4:55 AM)
Low48 °F (Oct 23, 1:35 AM)24% (Oct 24, 1:45 PM)29.62 "Hg (Oct 21, 4:45 PM)
Average65 °F64%30.14 "Hg
* Reported Oct 10 5:55 AM — Oct 25 3:35 AM, Myrtle Beach, Weather by CustomWeather, © 2016

Note: Actual official high and low records may vary slightly from our data, if they occured in-between our weather recording intervals... More about our weather records


Myrtle Beach Weather History for the Previous 24 Hours

Scroll right to see more
Time TempWeatherWind HumidityBarometerVisibility
3:35 AM
Tue, Oct 25
59 °FClear.12 mph59%30.20 "Hg10 mi
3:15 AM61 °FClear.10 mph55%30.20 "Hg10 mi
2:55 AM61 °FClear.12 mph59%30.20 "Hg10 mi
2:35 AM61 °FClear.12 mph59%30.20 "Hg10 mi
2:15 AM63 °FClear.12 mph56%30.20 "Hg10 mi
1:55 AM63 °FClear.12 mph59%30.20 "Hg10 mi
1:35 AM61 °FClear.9 mph72%30.20 "Hg10 mi
1:15 AM57 °FClear.No wind67%30.19 "Hg10 mi
12:55 AM57 °FClear.No wind72%30.19 "Hg10 mi
12:35 AM57 °FClear.3 mph72%30.19 "Hg10 mi
12:15 AM57 °FClear.No wind72%30.18 "Hg10 mi
11:55 PM
Mon, Oct 24
57 °FClear.No wind72%30.19 "Hg10 mi
11:35 PM59 °FClear.No wind68%30.19 "Hg10 mi
11:15 PM59 °FClear.No wind68%30.19 "Hg10 mi
10:55 PM57 °FClear.No wind72%30.19 "Hg10 mi
9:50 PM63 °FClear.6 mph64%30.17 "Hg10 mi
8:45 PM63 °FClear.6 mph59%30.15 "Hg10 mi
7:45 PM63 °FClear.6 mph59%30.14 "Hg10 mi
6:45 PM72 °FClear.6 mph47%30.12 "Hg10 mi
5:45 PM77 °FSunny.8 mph42%30.11 "Hg10 mi
4:45 PM79 °FSunny.8 mph34%30.11 "Hg10 mi
3:45 PM79 °FSunny.8 mph32%30.11 "Hg10 mi
2:45 PM81 °FSunny.9 mph32%30.12 "Hg10 mi
1:45 PM79 °FSunny.9 mph24%30.14 "Hg10 mi
11:45 AM73 °FSunny.9 mph36%30.20 "Hg10 mi
10:45 AM68 °FSunny.9 mph43%30.21 "Hg10 mi
9:45 AM64 °FSunny.12 mph46%30.22 "Hg10 mi
8:45 AM61 °FSunny.9 mph52%30.23 "Hg10 mi
6:45 AM55 °FClear.9 mph59%30.20 "Hg10 mi
5:45 AM55 °FClear.9 mph59%30.20 "Hg10 mi
5:35 AM55 °FClear.9 mph59%30.20 "Hg10 mi
5:15 AM55 °FClear.8 mph59%30.20 "Hg10 mi
4:55 AM55 °FClear.8 mph55%30.20 "Hg10 mi
4:35 AM55 °FClear.9 mph55%30.20 "Hg10 mi
4:15 AM54 °FClear.8 mph58%30.20 "Hg10 mi
Weather by CustomWeather, © 2016

See weather overviewHow to use our weather pages